User: anonymous   Login
Location: Unspecified
(0.0000°N, 0.0000°E)
Time: 23:29:54
(UTC+01:00)
Language:

Iridium 33 - Orbit

View from above orbital plane
View from above orbital plane
View from above satellite
View from above satellite

Ground track
Ground track

The orbit data is extracted from the following two-line orbital elements,

1 24946U 97051C   15064.53724137  .00000361  00000-0  12388-3 0  9990
2 24946 086.3842 275.9993 0009989 083.9937 335.2737 14.33320783914475
Epoch (UTC): 05 March 2015 12:53:37
Eccentricity: 0.0009989
inclination: 86.3842°
perigee height: 773 km
apogee height: 788 km
right ascension of ascending node: 275.9993°
argument of perigee: 83.9937°
revolutions per day: 14.33320783
mean anomaly at epoch: 335.2737°
orbit number at epoch: 91447

The dashed part of the orbit path shows where the satellite is in the earth's shadow,  

DLR